SCP
0 0 0 0 0 0 0 0 0 0 0 0 0 0 0 0 0 0 0 0 1 1 0 0 0 0 0 0 0 0 0 0 0 0 0 0 0 0 0 0 0 0 0 0 0 0 0 0 0
0 0 0 0 0 0 0 0 0 0 0 0 0 0 0 0 0 0 0 0 0 0 0 0 0 0 0 0 0 0 0 0 0 0 0 0 0 0 0 0 0 0 0 0 0 0 0 0 0
0 0 0 0 0 0 0 0 0 0 0 0 0 0 0 0 0 0 0 0 0 0 0 0 0 0 0 0 0 0 0 0 0 0 0 0 0 0 0 0 0 0 0 0 0 0 0 0 0
0 0 0 0 0 0 0 0 0 0 1 0 0 0 0 0 0 0 0 0 0 0 0 0 0 0 0 0 0 0 0 0 0 0 0 0 0 0 0 0 0 0 0 0 0 0 0 0 0
0 0 0 0 0 0 0 0 1 1 1 1 0 0 0 0 0 0 0 0 0 0 0 0 0 0 0 0 0 0 0 0 0 0 0 0 0 0 0 0 0 0 0 0 0 0 0 0 0
0 0 0 0 0 0 0 0 1 2 2 1 1 0 0 0 0 0 0 0 0 0 0 0 0 0 0 0 0 0 0 0 0 0 0 0 0 0 0 0 0 0 0 0 0 0 0 0 0
0 0 0 0 0 0 0 1 1 2 2 1 1 0 0 0 1 1 0 0 0 0 0 0 0 0 0 0 0 0 0 0 0 0 0 0 0 0 0 0 0 0 0 0 0 0 0 0 0
0 0 0 0 0 0 0 1 1 1 2 1 1 1 0 1 1 1 1 0 0 0 0 0 0 0 0 0 0 0 0 0 0 0 0 0 0 0 0 0 0 0 0 0 0 0 0 0 0
0 0 0 0 0 0 0 1 1 1 1 1 1 1 1 1 1 1 1 0 0 0 0 0 0 0 0 0 0 0 0 0 0 0 0 0 0 0 0 0 0 0 0 0 0 0 0 0 0
0 0 0 0 0 0 0 1 1 1 1 1 2 2 2 2 2 1 1 1 0 0 0 0 0 0 0 0 0 0 0 0 0 0 0 0 0 0 0 0 0 0 0 0 0 0 0 0 0
0 0 0 0 0 0 0 0 1 1 1 1 2 2 3 3 2 2 1 1 0 0 0 0 0 0 0 0 0 0 0 0 0 0 0 0 0 0 0 0 0 0 0 0 0 0 0 0 0
0 0 0 0 0 0 0 0 1 1 1 1 2 2 3 3 2 2 1 1 1 1 0 0 0 0 0 0 0 0 0 0 0 0 0 0 0 0 0 0 0 0 0 0 0 0 0 0 0
0 0 0 0 0 0 1 1 1 1 1 2 2 3 3 3 2 2 2 1 1 1 1 1 1 0 0 0 0 0 0 0 0 0 0 0 0 0 0 0 0 0 0 0 0 0 0 0 0
0 0 0 0 0 0 1 2 2 2 2 2 3 3 3 3 2 2 2 2 2 2 1 1 1 1 1 0 0 0 0 0 0 0 0 0 0 0 0 0 0 0 0 0 0 0 0 0 0
0 0 0 0 0 0 1 1 2 2 2 3 3 3 3 2 2 2 3 3 3 2 2 2 2 1 1 1 0 0 0 0 0 0 0 0 0 0 0 0 0 0 0 0 0 0 0 0 0
0 0 0 0 0 0 0 1 2 2 2 3 3 3 3 3 2 3 3 3 3 3 2 3 2 2 1 1 0 0 0 0 0 0 0 0 0 0 0 0 0 0 0 0 0 0 0 0 0
0 0 0 0 0 0 0 1 2 3 2 2 2 2 2 3 3 3 4 4 3 3 3 3 3 2 2 1 0 0 0 0 0 0 0 0 0 0 0 0 0 0 0 0 0 0 0 0 0
0 0 0 0 0 0 0 1 3 4 3 3 2 2 3 3 3 4 5 4 4 3 4 4 3 2 2 1 1 1 1 0 0 0 0 0 0 0 0 0 0 0 0 0 0 0 0 0 0
0 0 0 0 0 0 0 2 3 4 4 4 3 3 3 3 4 4 5 5 4 4 4 4 3 2 2 1 1 1 1 1 0 0 0 0 1 1 1 1 0 0 0 0 0 0 0 0 0
0 0 0 0 0 0 0 2 3 4 4 4 4 4 4 4 5 5 5 5 4 4 4 4 3 2 2 2 1 1 1 1 1 1 1 1 1 1 1 1 1 0 0 0 0 0 0 0 0
0 0 0 0 0 0 0 1 2 2 3 4 6 8 7 5 6 7 6 6 5 4 3 3 3 2 2 2 1 1 1 1 1 1 1 1 1 1 1 1 1 1 0 0 0 0 0 0 0
0 0 0 0 0 0 0 0 0 1 1 2 7 12 9 6 7 7 7 6 5 4 3 3 2 2 2 2 1 1 1 1 1 1 1 1 1 1 1 1 1 1 0 0 0 0 0 0 0
0 0 0 0 0 0 0 0 0 0 1 1 5 8 9 7 7 7 6 5 4 3 3 2 2 2 1 1 1 1 1 1 1 1 1 1 1 1 1 1 1 1 1 0 0 0 0 0 0
0 0 0 0 0 0 0 0 0 0 1 1 2 4 6 7 6 6 5 4 3 3 2 2 2 1 1 1 1 1 1 1 1 1 1 1 1 1 1 1 1 1 1 1 0 0 0 0 0
0 0 0 0 0 0 0 0 0 0 1 1 2 3 5 5 4 4 4 3 2 2 1 1 1 1 1 1 1 1 1 1 1 1 1 1 1 0 0 0 0 0 0 0 0 0 0 0 0
0 0 0 0 0 0 0 0 0 0 0 1 2 2 3 3 3 2 2 2 1 1 1 1 0 0 0 1 1 1 1 1 1 1 0 0 0 0 0 0 0 0 0 0 0 0 0 0 0
0 0 0 0 0 0 0 0 0 0 0 1 1 1 1 1 1 1 1 1 1 1 1 0 0 0 0 0 0 0 0 0 0 0 0 0 0 0 0 0 0 0 0 0 0 0 0 0 0
0 0 0 0 0 0 0 0 0 0 0 1 1 1 1 1 1 1 0 0 0 0 0 0 0 0 0 0 0 0 0 0 0 0 0 0 0 0 0 0 0 0 0 0 0 0 0 0 0
0 0 0 0 0 0 0 0 0 0 0 0 0 0 0 0 0 0 0 0 0 0 0 0 0 0 0 0 0 0 0 0 0 0 0 0 0 0 0 0 0 0 0 0 0 0 0 0 0
0 0 0 0 0 0 0 0 0 0 0 0 0 0 0 0 0 0 0 0 0 0 0 0 0 0 0 0 0 0 0 0 0 0 0 0 0 0 0 0 0 0 0 0 0 0 0 0 0
Wind_Speed
6 5 1 2 5 4 1 1 2 5 6 11 12 13 12 8 6 8 5 15 15 11 8 12 13 14 14 15 14 13 12 12 13 14 14 15 16 15 15 15 14 14 13 12 12 11 12 13 13
3 3 2 4 4 2 1 3 3 3 4 2 7 10 12 11 11 12 9 15 15 11 7 9 15 14 14 14 13 12 12 11 11 12 12 13 13 13 13 13 13 13 12 12 11 11 12 12 12
2 1 3 3 2 5 6 6 7 5 1 3 3 8 9 9 12 8 12 17 14 10 7 10 15 15 14 14 12 11 11 12 11 10 10 11 11 11 11 11 11 11 11 11 11 10 10 10 10
2 3 4 3 4 6 8 8 5 2 5 3 7 9 7 7 8 15 20 18 15 11 8 10 15 15 14 14 13 12 12 12 11 10 9 9 10 10 10 10 10 9 9 10 10 10 10 9 9
2 3 3 2 4 5 5 6 7 8 6 8 9 9 6 6 20 22 20 19 16 11 8 10 15 15 14 13 13 12 12 12 12 11 10 9 8 8 9 10 9 9 9 9 9 9 9 9 8
3 4 2 2 5 5 4 10 15 16 10 7 8 7 5 12 19 19 17 15 15 13 10 10 15 15 15 14 13 12 11 11 11 11 10 9 8 7 7 9 9 8 8 8 9 9 8 8 8
3 3 1 3 5 4 5 8 11 17 13 5 3 6 5 10 14 17 16 15 13 12 10 7 8 11 14 15 14 13 11 10 10 9 8 8 7 6 6 6 7 8 8 7 7 8 8 8 8
4 3 1 3 5 5 10 9 9 11 12 7 5 8 8 11 16 17 15 14 12 10 9 8 6 6 7 9 14 14 12 10 10 9 9 8 7 7 7 5 6 7 7 8 8 9 10 10 9
2 4 2 3 3 5 12 12 6 4 5 4 3 5 14 17 19 17 14 11 10 10 8 8 7 6 6 7 11 12 13 11 10 8 10 7 4 4 5 7 8 8 9 9 9 10 10 10 10
4 4 6 4 5 3 7 12 14 9 7 5 4 7 15 19 19 17 16 13 11 11 9 8 9 8 7 7 6 5 5 6 5 4 5 4 4 4 6 8 11 11 10 9 10 10 9 7 3
4 6 4 5 7 4 5 9 9 13 6 10 17 19 19 19 18 17 16 14 12 12 11 9 9 8 7 5 5 3 3 3 4 5 5 4 4 3 4 3 4 5 6 4 4 5 3 3 3
4 7 6 7 6 4 5 10 8 8 10 10 13 15 16 18 17 17 16 15 12 12 12 11 10 8 8 6 6 5 4 3 4 5 6 4 3 3 3 3 3 3 2 3 3 3 4 4 5
6 11 11 9 5 2 6 9 8 3 8 12 13 14 15 15 14 13 14 13 12 10 10 10 10 10 8 7 5 5 5 5 5 4 5 5 3 3 4 3 3 3 3 3 4 4 4 4 5
7 9 9 6 4 3 9 8 7 5 10 14 17 17 16 15 14 12 13 13 11 9 8 7 9 9 7 5 5 7 7 6 5 4 5 5 4 3 3 3 3 3 4 4 4 4 3 3 3
5 4 5 4 3 4 6 5 8 11 13 13 14 14 13 11 11 12 14 14 13 11 9 8 9 8 6 5 5 5 5 6 5 4 4 5 4 4 3 3 3 3 3 4 2 2 1 1 2
4 3 4 8 3 3 7 5 7 15 16 15 13 11 9 7 7 9 11 11 11 11 11 9 8 7 6 5 4 3 3 4 3 3 4 5 5 5 4 3 3 2 3 3 2 2 1 2 2
4 1 5 8 6 4 6 6 10 17 17 17 15 12 10 8 7 8 10 11 10 11 11 9 7 7 6 5 3 3 3 4 3 3 3 4 5 5 4 3 3 3 3 2 2 2 2 2 2
4 3 4 6 7 7 8 8 12 21 20 18 16 12 9 9 8 7 9 8 8 10 10 9 8 7 6 4 2 1 2 3 3 4 4 5 4 4 4 3 3 3 3 2 2 2 2 2 2
5 3 3 3 5 2 6 8 11 20 18 16 13 12 11 10 7 8 7 7 8 9 10 9 8 6 4 2 2 2 2 2 2 3 4 4 4 3 4 3 3 4 4 4 4 3 2 2 1
1 3 4 6 8 7 4 3 4 14 18 20 21 19 18 14 11 12 9 8 8 8 7 7 7 6 4 2 2 2 2 3 3 2 4 5 5 4 4 5 4 4 3 4 4 3 2 2 2
4 3 3 5 7 7 4 6 3 1 3 10 17 19 19 21 21 17 12 11 11 8 6 5 5 4 2 1 1 1 1 1 1 2 3 5 6 5 4 5 4 3 3 4 4 4 4 2 2
2 3 5 7 6 5 3 1 5 2 4 2 10 12 15 14 11 10 10 11 12 10 8 6 5 6 3 2 2 1 2 3 4 3 3 3 4 4 4 5 4 3 3 3 4 4 3 3 3
3 1 4 3 4 2 2 2 6 9 9 10 8 10 10 8 8 8 8 9 8 8 8 7 6 6 4 2 3 2 2 2 2 2 2 1 1 2 3 3 3 3 2 2 3 3 3 3 4
2 6 7 6 5 1 2 3 2 6 8 13 9 6 5 3 4 6 6 8 7 7 6 5 5 4 2 3 3 2 2 2 2 2 2 2 3 3 4 3 2 2 1 1 3 3 4 4 3
4 7 5 5 3 4 3 3 3 5 6 8 9 6 4 5 5 6 8 8 8 7 7 6 5 4 2 1 1 2 3 4 4 2 3 4 2 2 2 2 1 1 1 1 2 3 4 4 3
1 8 8 5 4 4 3 4 4 3 6 5 6 10 11 11 9 7 5 5 6 8 7 7 7 6 3 3 3 4 4 3 3 3 3 3 2 1 1 2 3 3 3 3 3 3 4 3 4
2 2 6 7 3 2 2 4 2 7 10 8 9 11 11 10 10 9 8 6 3 5 6 6 7 6 4 4 4 5 5 4 4 4 4 3 2 0 1 1 2 3 3 2 2 2 4 3 4
3 7 5 6 6 4 2 3 2 6 8 7 7 6 5 6 7 8 7 5 3 1 3 4 4 4 4 4 4 3 4 3 3 3 3 2 1 2 2 2 3 3 4 4 2 1 2 3 3
4 2 4 5 5 5 3 2 2 0 2 3 3 3 3 4 6 7 5 4 4 3 3 4 5 5 5 5 4 3 2 2 3 2 2 2 2 3 4 3 3 3 3 3 3 2 2 0 1
5 4 4 5 5 5 4 3 1 0 3 5 3 3 4 5 5 5 4 5 5 5 3 3 5 5 4 4 4 2 1 2 3 2 2 3 4 4 4 4 5 5 4 4 4 3 3 2 1
Wind_Direction
294 286 154 40 51 54 68 299 279 344 26 45 65 83 83 59 103 132 118 131 131 133 135 131 128 129 131 133 134 136 136 132 128 127 128 125 122 121 121 121 120 118 114 111 108 109 112 118 119
311 319 81 58 82 93 201 223 194 204 166 87 67 72 74 69 84 109 122 132 132 129 128 132 129 129 130 133 137 140 139 137 137 135 134 132 131 130 128 126 125 123 121 119 120 122 120 121 121
292 205 83 82 135 176 194 210 203 208 223 297 86 72 78 101 118 124 137 139 133 128 129 137 131 129 127 127 129 131 137 140 140 140 139 136 135 135 132 131 131 128 126 128 131 133 132 129 128
3 40 53 82 236 228 200 194 188 80 29 23 102 80 84 116 123 135 142 140 132 131 130 138 134 130 128 127 126 124 126 131 135 139 145 146 145 144 139 137 139 142 139 138 142 146 148 145 141
77 69 47 322 257 246 201 150 103 73 37 40 71 82 58 81 124 138 142 138 136 137 137 141 142 140 136 132 129 126 125 126 128 129 133 137 142 149 152 152 151 154 157 156 156 158 161 162 162
35 70 68 292 287 271 164 126 111 93 75 49 54 69 77 126 134 139 137 135 139 142 141 147 147 142 142 139 136 134 131 131 130 127 127 130 133 135 147 157 160 166 172 175 178 179 176 177 180
135 104 194 268 285 272 151 130 122 120 103 67 64 83 113 144 138 135 133 133 136 138 139 138 143 148 148 145 143 142 140 139 137 135 136 139 141 140 144 156 167 175 184 192 198 201 197 198 198
159 101 294 289 288 287 135 114 110 120 126 139 129 132 154 160 139 136 134 135 137 141 144 145 145 143 145 148 149 150 151 153 153 155 158 162 165 166 171 179 185 187 192 200 209 216 218 214 212
112 82 227 247 326 10 113 119 117 88 120 132 162 154 150 145 140 137 135 138 145 153 156 153 152 152 155 160 163 158 161 167 169 173 177 175 189 194 192 197 204 204 204 206 208 215 221 223 222
121 168 220 232 327 349 137 139 146 147 151 145 150 145 145 147 148 146 149 155 161 164 166 166 166 168 169 172 159 162 165 174 177 189 194 188 203 223 219 217 216 211 213 217 217 216 218 222 225
189 209 213 274 294 301 119 130 142 143 177 181 166 162 159 151 152 156 159 163 170 169 170 177 175 175 180 173 162 172 173 178 193 204 213 209 215 224 227 211 217 217 224 228 240 231 223 214 217
260 268 265 268 281 282 120 134 141 176 197 180 162 155 153 153 156 161 162 164 167 174 180 180 178 176 185 176 175 178 177 187 205 214 214 202 198 199 201 199 197 206 220 229 236 228 232 230 233
257 266 266 255 254 217 101 129 142 161 149 149 147 145 154 159 159 159 159 159 158 166 174 174 171 174 177 178 182 184 190 197 204 207 210 194 186 192 194 198 200 210 212 217 231 227 231 235 239
251 259 261 257 240 188 122 125 112 147 150 153 157 159 163 166 165 161 157 155 154 157 162 163 161 166 169 175 179 189 195 195 192 197 208 193 180 169 171 179 195 205 202 199 209 216 216 232 241
256 281 327 326 242 195 140 142 158 161 161 162 169 169 167 169 169 169 161 158 157 159 165 168 162 160 161 166 168 171 178 177 186 189 194 186 183 168 170 173 186 188 179 175 185 202 206 215 239
336 7 323 301 290 225 141 197 167 162 166 172 179 183 180 182 183 173 162 158 161 164 170 174 167 159 159 167 166 158 170 174 187 184 186 192 190 179 177 184 192 169 144 145 164 188 225 261 261
360 323 270 285 278 236 160 193 170 169 176 181 188 194 193 193 200 190 173 163 165 173 172 172 164 161 166 178 183 171 158 170 186 193 201 206 197 181 178 193 192 160 145 158 181 196 199 232 250
267 266 261 257 277 239 181 182 167 175 182 189 193 196 198 203 205 185 173 161 168 172 166 161 158 161 164 171 172 175 168 179 185 191 208 213 212 195 184 193 181 159 156 177 200 210 205 206 218
267 268 280 289 314 10 157 160 169 177 183 186 186 187 194 203 196 179 169 148 158 161 157 155 153 154 149 159 166 181 199 197 190 198 215 218 224 210 176 165 163 164 169 187 201 199 212 227 198
355 20 349 328 348 15 58 71 140 174 183 180 178 183 188 185 183 185 171 152 161 161 157 151 151 151 158 179 184 194 201 200 191 197 216 216 211 202 181 175 178 172 170 188 203 192 193 237 193
350 6 348 341 351 11 36 4 32 110 173 190 185 184 185 184 185 185 175 165 162 162 160 160 154 130 104 328 277 217 147 136 196 217 220 220 208 201 193 191 179 174 175 198 214 205 198 228 241
315 33 45 47 49 342 29 324 308 14 44 282 211 198 195 193 182 175 171 169 169 167 155 145 134 114 95 33 310 245 200 200 213 212 223 233 209 192 190 186 175 170 182 209 223 215 201 189 228
231 91 69 65 84 24 5 147 303 10 6 334 281 220 210 195 169 171 170 156 146 145 143 138 137 131 129 169 239 240 211 211 210 193 198 194 132 111 115 150 157 157 166 202 237 243 213 194 198
164 59 36 42 73 79 249 159 5 346 321 316 307 244 216 152 124 123 111 111 114 116 115 113 113 111 147 203 233 194 142 143 132 141 137 97 81 67 64 83 104 134 147 202 241 249 229 215 208
89 86 32 4 19 240 268 128 131 300 313 316 330 357 45 85 89 111 125 125 122 122 119 115 117 112 118 138 93 87 103 105 100 110 125 117 101 76 32 23 351 275 246 259 250 242 242 224 202
212 146 159 191 215 277 321 126 145 345 349 336 16 42 49 49 45 46 57 93 116 128 136 141 134 117 104 96 78 62 65 84 71 71 101 108 103 88 359 334 309 291 276 261 245 238 242 226 204
124 126 154 133 168 246 270 108 113 17 21 37 62 58 51 49 49 44 40 47 88 129 144 144 130 128 124 102 89 78 71 74 66 67 81 86 83 64 345 323 338 349 351 319 240 232 246 228 207
132 141 108 129 158 215 210 103 29 10 15 38 73 76 69 64 61 52 36 19 15 81 126 122 128 136 126 108 94 86 82 83 77 79 78 72 29 351 349 18 18 11 5 5 17 299 269 234 210
109 104 119 134 156 162 179 149 161 168 354 30 68 100 90 74 64 51 23 0 16 35 74 106 108 109 104 95 86 81 81 86 80 75 65 43 16 13 21 24 23 8 352 356 20 16 353 284 215
121 144 151 161 190 165 151 140 134 191 15 23 25 38 40 45 43 38 16 8 19 25 37 88 112 113 110 101 91 84 90 95 97 94 76 70 58 42 37 34 33 26 26 28 29 20 25 51 59